Skip Navigation Links
NOAA logo - Click to go to the NOAA homepage
NOAA's National Weather Service
Alaska Aviation Weather Unit
  NWS logo - Click to go to the NWS homepage
Left Navbar Graphic     00 AKDT = 08 GMT

   
NOAA is celebrating 200 years of science, service, and stewardship. Visit the NOAA 200th celebration Web site to learn more.
USA.gov is the U.S. Government's official Web portal to all Federal, state and local government Web resources and services.
Facebook
NWS on Facebook

Important Change Regarding the AAWU Web Presence

 

Over the last several months, the AAWU has been working to navigate its webpages to a nationally supported server. Security, as well as other needs, have necessitated the change.  We have been given an extension for the site changeover while we diligently work at addressing feedback received. As of July 14, 2017, aawu.arh.noaa.gov will be discontinued. The new AAWU web address is weather.gov/aawu. It is now live and will run in-parallel with the old site until it is discontinued on July 14, 2017. Please continue to send any feedback or questions regarding the new webpages to nws.ar.aawu.webauthors@noaa.gov.  Thank you for your patience during this time of transition.
AAWU Home :: Display TAF Add Bookmark
TAF PABT 240540Z 2406/2506  03008KT P6SM FEW090 BKN200=

4315
FTAK31 PAFA 240540
TAFAQT
TAF

METAR PABT 240253Z VRB03KT 10SM FEW060 SCT080 BKN200 10/M01 A2971 RMK AO2 SLP072 T01001006 56009= METAR PABT 240353Z 04005KT 10SM FEW060 FEW090 BKN200 09/M01 A2971 RMK AO2 SLP072 T00891006= METAR PABT 240453Z 03005KT 10SM FEW090 BKN200 07/M01 A2971 RMK AO2 SLP072 T00671006= METAR PABT 240553Z 05005KT 10SM FEW090 SCT200 06/M01 A2971 RMK AO2 SLP072 T00561011 10122 20056 56001= METAR PABT 240653Z 01006KT 10SM FEW055 SCT200 05/M01 A2971 RMK AO2 SLP071 T00501011= METAR PABT 240753Z 01006KT 10SM FEW055 SCT180 04/M02 A2970 RMK AO2 SLP069 T00441017=
 Alaska TAF Map

NOAA's National Weather Service
Alaska Aviation Weather Unit
6930 Sand Lake Road
Anchorage, AK 99502-1845
Disclaimer
Credits
Glossary
Privacy Policy
About Us
Career Opportunities
Contact AAWU Internet Services Site last modified: April, 17th 2012